Regional Weather Roundup
Issued by NWS

Home | Current Version | Previous Version | Graphics & Text | Print | Product List | Glossary On
Versions: 1 2 3 4 5 6 7 8 9 10 11 12 13 14 15 16 17 18 19 20 21 22 23 24 25 26 27 28 29 30 31 32 33 34 35 36 37 38 39 40 41 42 43 44 45 46 47 48 49 50
004
ASUS44 KLIX 210405
RWRLA
LOUISIANA WEATHER ROUNDUP
NATIONAL WEATHER SERVICE NEW ORLEANS LA
1100 PM CDT WED AUG 20 2014

NOTE: "FAIR" INDICATES FEW OR NO CLOUDS BELOW 12,000 FEET WITH NO
      SIGNIFICANT WEATHER AND/OR OBSTRUCTIONS TO VISIBILITY.
      SKY/WX - SKY CONDITION AND SIGNIFICANT WEATHER.
      TMP - AIR TEMPERATURE.    DP   - DEWPOINT TEMPERATURE.
      RH  - RELATIVE HUMIDITY.  PRES - PRESSURE.
      HX  - HEAT INDEX.         WCI  - WIND CHILL INDEX.

*  THESE STATIONS ARE NOT NWS OR FAA STATIONS AND ARE NOT UNDER
   NWS QUALITY CONTROL.

LAZ040-048-061>063-065-066-069-210500-
SOUTHEAST LOUISIANA

CITY           SKY/WX    TMP DP  RH WIND       PRES   REMARKS
N.O. AUDUBON   NOT AVBL
N.O. INTL ARPT PTCLDY    79  71  76 CALM      30.09R
N.O. LAKEFRONT CLEAR     82  73  74 SW5       30.09S
N.O. DOWNTOWN* FAIR      82  70  65 CALM      30.10R
SLIDELL        PTCLDY    78  74  87 CALM      30.09R
BATON ROUGE    PTCLDY    76  73  91 E5        30.07R
BOOTHVILLE     CLEAR     84  76  76 S6        30.11R
BELLE CHASSE   MOCLDY    77  72  84 CALM      30.09R
BOGALUSA*      FAIR      78  74  87 CALM      30.10S
GALLIANO*      NOT AVBL
NEW ROADS*     FAIR      74  74  97 CALM      30.06S
GONZALES*      FAIR      75  75  99 CALM      30.08R
HAMMOND*       CLEAR     75  70  83 CALM      30.10S
HOUMA*         CLOUDY    76  72  88 CALM      30.09S
PORT FOURCHON* CLEAR     86  75  70 S6        30.11R HX  95

$$

LAZ041-044-053-054-210500-
SOUTHWEST LOUISIANA

CITY           SKY/WX    TMP DP  RH WIND       PRES   REMARKS
LAKE CHARLES   CLOUDY    78  74  87 E5        30.03R
LAFAYETTE      CLOUDY    78  75  90 CALM      30.06R
PATTERSON      CLOUDY   N/A N/A N/A MISG        N/A
SALT POINT       N/A     81  74  79 SE3       30.07R
NEW IBERIA     CLOUDY    79  75  87 SE9       30.06R
CHENAULT AIRPK MOCLDY    77  73  90 SE3       30.04R

$$

LAZ027-028-210500-
CENTRAL LOUISIANA

CITY           SKY/WX    TMP DP  RH WIND       PRES   REMARKS
FORT POLK      MOCLDY    75  74  96 CALM      30.05R
ALEXANDRIA INT CLOUDY    76  72  87 CALM      30.04R
ALEXANDRIA     CLOUDY    76  72  87 CALM      30.07R

$$

LAZ001-002-210500-
NORTHWEST LOUISIANA

CITY           SKY/WX    TMP DP  RH WIND       PRES   REMARKS
SHREVEPORT     PTCLDY    78  69  73 S5        30.01R
BARKSDALE AFB  PTCLDY    74  68  81 SE3       30.02R
DTN SHREVEPORT PTCLDY    78  68  71 S7        30.01R

$$

LAZ014-016-210500-
NORTHEAST LOUISIANA

CITY           SKY/WX    TMP DP  RH WIND       PRES   REMARKS
MONROE         MOCLDY    78  71  79 S3        30.06R
TALLULAH       CLEAR     77  73  87 S5        30.06S

$$




USA.gov is the U.S. government's official web portal to all federal, state and local government web resources and services.